[[{"header":{"parameterUnit":"m.s-1","parameterCategory":2,"la1":30.2991,"la2":30.254,"lo1":-89.0895,"lo2":-89.0444,"dy":0.0017,"dx":0.0017,"nx":28,"ny":28,"refTime":"2025-06-10T03:00:00:Z","depth":"0","parameterNumber":2,"parameterNumberName":"U-component_of_CURRENTS"},"data":[0,0,0,0,0,0,0,0,0,0,0,0,0,0,0,0,0,0,0,0,0,0,0,0,0,0,0,0,0,0,0,0,0,0,0,0,0,0,0,0,0,0,0,0,0,0,0,0,0,0,0,0,0,0,0,0,0,0,0.2229,0.223,0,0.2327,0.2328,0.2329,0.2258,0.2255,0.2252,0.2249,0.2204,0.2206,0.2207,0,0,0,0,0,0,0,0,0,0,0,0,0,0.2152,0.2153,0.2229,0.223,0.2232,0.2327,0.2328,0.2329,0.2258,0.2255,0.2251,0.2248,0.2204,0.2205,0.2207,0,0,0,0,0,0,0,0,0,0,0,0,0,0.2208,0.2153,0.2229,0.221,0.2209,0.2327,0.2328,0.2329,0.2259,0.2255,0.225,0.2246,0.2203,0.2205,0.2208,0.2309,0,0,0.2214,0.2215,0,0,0,0,0,0,0,0,0.2205,0.2211,0.2211,0.2211,0.2211,0.2278,0.2285,0.2316,0.226,0.2237,0.2249,0.2244,0.2221,0.2221,0.2248,0.2307,0.2305,0.2215,0.2216,0.2217,0.2218,0,0,0,0,0,0,0,0.2201,0.2207,0.2265,0.2213,0.2213,0.2256,0.2257,0.2292,0.2247,0.2239,0.2235,0.2251,0.2218,0.2246,0.2246,0.2304,0.2215,0.2217,0.2218,0.2219,0.2431,0.2435,0,0,0,0,0,0,0.2191,0.2203,0.2262,0.2268,0.22,0.226,0.2262,0.2259,0.225,0.2247,0.2255,0.2248,0.2244,0.2243,0.2244,0.2419,0.2217,0.2219,0.222,0.2426,0.2432,0.2436,0,0,0,0,0,0,0.2188,0.2194,0.2258,0.2241,0.2252,0.2265,0.2263,0.2263,0.2283,0.2264,0.2256,0.2273,0.2241,0.224,0.2298,0.2414,0.222,0.2222,0.2421,0.2428,0.2434,0.2733,0,0,0,0,0,0,0.2185,0.2192,0.221,0.224,0.2253,0.2354,0.2268,0.2268,0.2301,0.2293,0.2279,0.227,0.2237,0.2296,0.2301,0.2413,0.2224,0.2416,0.2424,0.2432,0.2718,0.2749,0.2776,0,0,0,0,0,0.2182,0.2235,0.221,0.2219,0.2268,0.2358,0.2371,0.2363,0.2307,0.2355,0.2338,0.227,0.2348,0.2303,0.2307,0.2423,0.2412,0.2422,0.2431,0.2705,0.2743,0.2775,0,0,0,0,0,0,0.224,0.2234,0.2206,0.226,0.2311,0.2347,0.2408,0.2382,0.2411,0.2398,0.2339,0.2335,0.2433,0.238,0.233,0.2501,0.2365,0.2376,0.2572,0.2607,0.2635,0.2643,0.2226,0,0,0,0,0,0.2255,0.2277,0.2294,0.235,0.2375,0.2388,0.2426,0.2422,0.2445,0.2452,0.245,0.2445,0.2486,0.2501,0.2527,0.2629,0.2583,0.2697,0.2726,0.2751,0.2759,0.283,0.2867,0.2468,0.2468,0.2467,0,0,0.2304,0.2302,0.232,0.2363,0.2399,0.2502,0.2401,0.2483,0.257,0.2447,0.2574,0.2558,0.2535,0.2657,0.2693,0.2621,0.284,0.2763,0.2786,0.2779,0.2844,0.2883,0.2917,0.2474,0.2473,0.2472,0,0,0.245,0.2404,0.249,0.2531,0.259,0.2604,0.2626,0.2678,0.2697,0.2807,0.275,0.2807,0.2854,0.2889,0.2899,0.31,0.2997,0.309,0.3249,0.3321,0.3355,0.3384,0.3376,0.3402,0.3099,0.31,0.3101,0,0.2512,0.2589,0.2545,0.2652,0.2695,0.2655,0.2775,0.283,0.2899,0.2918,0.2876,0.2976,0.298,0.3111,0.3191,0.3176,0.315,0.3128,0.3363,0.339,0.3415,0.3399,0.3424,0.3116,0.3114,0.3112,0.3111,0,0.2739,0.2789,0.2855,0.2943,0.3,0.3092,0.3132,0.3194,0.3185,0.3207,0.3314,0.3335,0.3363,0.3408,0.3372,0.3552,0.3456,0.3401,0.3282,0.3474,0.3443,0.3464,0.3138,0.3132,0.3128,0.3124,0,0,0.2873,0.2983,0.3002,0.304,0.3131,0.3185,0.3339,0.3424,0.3466,0.3556,0.3631,0.3763,0.3704,0.3712,0.3686,0.3773,0.3958,0.3674,0.3671,0.3678,0.4061,0.3759,0.375,0.3944,0.3949,0.3954,0.3969,0,0.3052,0.3249,0.3267,0.3436,0.3515,0.3498,0.3614,0.3678,0.3701,0.3774,0.3806,0.3867,0.3839,0.3841,0.3949,0.3937,0.4025,0.3954,0.386,0.3856,0.3577,0.3769,0.3525,0.3498,0.3988,0.3991,0.3993,0,0.3254,0.3334,0.3522,0.3573,0.3606,0.37,0.3759,0.386,0.394,0.3949,0.4019,0.4001,0.4145,0.4079,0.4208,0.4154,0.4146,0.4142,0.4141,0.3763,0.3593,0.3383,0.3515,0.34,0.4023,0.4021,0.4019,0,0.331,0.348,0.3598,0.3638,0.374,0.3786,0.3829,0.3901,0.3944,0.4042,0.4056,0.4183,0.4209,0.4289,0.426,0.4254,0.4346,0.4323,0.4048,0.4023,0.3743,0.3682,0.3756,0.4443,0.4443,0.4443,0.4443,0,0.3435,0.3517,0.3614,0.3673,0.3771,0.3812,0.3892,0.3946,0.4009,0.4051,0.4123,0.4168,0.4267,0.4297,0.4312,0.4203,0.4383,0.4101,0.4032,0.3832,0.3783,0.36,0.3581,0.4444,0.4443,0.4443,0.4443,0,0.3477,0.355,0.3671,0.3776,0.3799,0.3859,0.3912,0.3949,0.4001,0.4065,0.4095,0.418,0.4183,0.4203,0.4278,0.419,0.4008,0.4077,0.3779,0.3673,0.3261,0.3266,0.3111,0.3053,0.3804,0.3797,0.3791,0,0.3519,0.3597,0.3731,0.3773,0.3815,0.3882,0.391,0.3957,0.3978,0.4051,0.4076,0.409,0.4059,0.3991,0.3847,0.3748,0.3737,0.3448,0.341,0.3221,0.3183,0.312,0.3085,0.3178,0.3167,0.3159,0.3152,0,0.3601,0.365,0.3745,0.3833,0.3872,0.3891,0.392,0.3916,0.3947,0.3956,0.393,0.3908,0.3776,0.3522,0.3328,0.3261,0.3227,0.3259,0.3205,0.2808,0.2615,0.2525,0.3144,0.3076,0.3083,0.3089,0.3093,0.3096,0.3654,0.3736,0.3846,0.3895,0.3913,0.3846,0.3764,0.3766,0.3719,0.3607,0.3722,0.3533,0.3278,0.2938,0.2849,0.2451,0.2634,0.2346,0.2403,0.2384,0.222,0.2598,0.2345,0.2348,0.2351,0.2354,0.2356,0,0.3741,0.3814,0.3883,0.3899,0.3811,0.3821,0.3721,0.3556,0.3386,0.3336,0.3234,0.2826,0.2509,0.2285,0.1841,0.1661,0.167,0.1605,0.157,0.1615,0.2064,0.1925,0.1396,0.1396,0.1397,0.1397,0.1397,0.1397,0.38,0.3896,0.3905,0.3774,0.3704,0.3458,0.3309,0.3113,0.2976,0.2609,0.2322,0.2208,0.1941,0.1511,0.1176,0.1134,0.1136,0.0949,0.1119,0.1507,0.1585,0.166,0.1528,0.0925,0.0924,0.057,0.0568,0.0565]},{"header":{"parameterUnit":"m.s-1","parameterCategory":2,"la1":30.2991,"la2":30.254,"lo1":-89.0895,"lo2":-89.0444,"dy":0.0017,"dx":0.0017,"nx":28,"ny":28,"refTime":"2025-06-10T03:00:00:Z","depth":"0","parameterNumber":3,"parameterNumberName":"V-component_of_CURRENTS"},"data":[0,0,0,0,0,0,0,0,0,0,0,0,0,0,0,0,0,0,0,0,0,0,0,0,0,0,0,0,0,0,0,0,0,0,0,0,0,0,0,0,0,0,0,0,0,0,0,0,0,0,0,0,0,0,0,0,0,0,0.0072,0.0072,0,0.0087,0.0087,0.0087,0.0099,0.0099,0.0099,0.0099,0.0154,0.0155,0.0157,0,0,0,0,0,0,0,0,0,0,0,0,0,0.008,0.008,0.0072,0.0072,0.0072,0.0087,0.0087,0.0087,0.0099,0.0099,0.0099,0.0099,0.0153,0.0155,0.0157,0,0,0,0,0,0,0,0,0,0,0,0,0,0.0086,0.008,0.0072,0.0078,0.0079,0.0087,0.0087,0.0087,0.0099,0.0099,0.0099,0.0099,0.0153,0.0155,0.0157,0.0172,0,0,0.0164,0.0165,0,0,0,0,0,0,0,0,0.0085,0.0085,0.0077,0.0078,0.0078,0.0089,0.011,0.0117,0.0099,0.0093,0.0099,0.0099,0.0135,0.0139,0.0143,0.0175,0.0177,0.0164,0.0166,0.0167,0.0167,0,0,0,0,0,0,0,0.0085,0.0085,0.0079,0.0077,0.0078,0.0089,0.009,0.0112,0.0116,0.0093,0.0094,0.0093,0.0136,0.0141,0.0145,0.0178,0.0164,0.0166,0.0168,0.0169,0.026,0.0261,0,0,0,0,0,0,0.0078,0.0085,0.0079,0.008,0.008,0.0089,0.009,0.0087,0.0115,0.0118,0.0093,0.0093,0.0137,0.0142,0.0147,0.0185,0.0167,0.0169,0.017,0.0259,0.026,0.0261,0,0,0,0,0,0,0.0078,0.0078,0.0078,0.0081,0.0082,0.0089,0.0086,0.0088,0.0093,0.0114,0.0118,0.0097,0.0138,0.0144,0.0154,0.0187,0.017,0.0172,0.0257,0.0259,0.026,0.025,0,0,0,0,0,0,0.0079,0.0078,0.0076,0.0081,0.0081,0.0076,0.0086,0.0088,0.0092,0.0093,0.0119,0.0124,0.0138,0.0151,0.0157,0.019,0.0174,0.0256,0.0258,0.026,0.0249,0.0251,0.0253,0,0,0,0,0,0.0079,0.0068,0.0076,0.0076,0.0079,0.0076,0.0077,0.0083,0.0092,0.009,0.0103,0.0123,0.0169,0.0152,0.0159,0.0194,0.0255,0.0257,0.026,0.0248,0.0251,0.0253,0,0,0,0,0,0,0.0067,0.0068,0.0077,0.0067,0.0071,0.0077,0.0074,0.0084,0.0093,0.0096,0.0119,0.0124,0.0148,0.0171,0.0152,0.0228,0.0223,0.0227,0.0213,0.0215,0.0217,0.0294,0.0176,0,0,0,0,0,0.0065,0.0059,0.0065,0.0057,0.0059,0.007,0.0072,0.0078,0.0085,0.0089,0.0105,0.0134,0.0166,0.0186,0.0205,0.024,0.0299,0.0274,0.0276,0.0277,0.0346,0.0482,0.0504,0.0269,0.0269,0.0269,0,0,0.0057,0.0058,0.0054,0.0055,0.006,0.0066,0.0071,0.007,0.0088,0.0095,0.0116,0.013,0.0171,0.0205,0.0222,0.0228,0.035,0.028,0.0281,0.0351,0.0488,0.0511,0.0532,0.027,0.027,0.027,0,0,0.0037,0.0041,0.0032,0.0038,0.0044,0.0056,0.0056,0.0063,0.008,0.0093,0.0115,0.0164,0.0177,0.0244,0.0274,0.0309,0.0345,0.0294,0.0381,0.0509,0.0531,0.0552,0.0549,0.0569,0.0308,0.0308,0.0308,0,0.0031,0.0028,0.0029,0.0028,0.0044,0.0052,0.0063,0.0078,0.009,0.014,0.0096,0.0213,0.022,0.0345,0.0343,0.0322,0.0353,0.0358,0.0516,0.0538,0.0559,0.0553,0.0576,0.0308,0.0308,0.0308,0.0308,0,0.001,0.0016,0.001,0.0023,0.0037,0.0042,0.007,0.0096,0.0113,0.0155,0.0255,0.0278,0.0376,0.0365,0.0357,0.0519,0.0468,0.0487,0.0512,0.0583,0.0568,0.0593,0.0308,0.0308,0.0308,0.0308,0,0,-0.0015,-0.0004,-0.0001,0.0027,0.0043,0.0062,0.0102,0.0178,0.0262,0.0278,0.0413,0.0454,0.0505,0.0549,0.0564,0.067,0.0773,0.064,0.0646,0.0641,0.0969,0.0861,0.0876,0.0818,0.0825,0.0831,0.0859,0,-0.0022,-0.0008,0.0,0.0038,0.0059,0.0102,0.0157,0.0232,0.0298,0.0421,0.0515,0.0618,0.0563,0.0621,0.0721,0.0793,0.0855,0.0759,0.0904,0.0907,0.081,0.0911,0.0872,0.0893,0.0883,0.0887,0.089,0,-0.0037,-0.0014,0.0016,0.0097,0.0114,0.0141,0.0286,0.0336,0.0506,0.057,0.0714,0.078,0.0945,0.088,0.1063,0.1,0.0992,0.1019,0.1021,0.0974,0.0852,0.0845,0.0938,0.0914,0.0928,0.0925,0.0922,0,-0.0026,0.0007,0.0046,0.0063,0.0141,0.0194,0.0249,0.0394,0.0498,0.0691,0.0805,0.0981,0.1095,0.1179,0.119,0.1151,0.1362,0.1315,0.1196,0.1181,0.1214,0.1193,0.1331,0.1452,0.1452,0.1452,0.1452,0,-0.002,0.0016,0.0056,0.0085,0.0181,0.0219,0.0362,0.0449,0.0627,0.0801,0.0894,0.1068,0.119,0.13,0.128,0.1311,0.1429,0.1259,0.1235,0.1189,0.1167,0.12,0.118,0.1453,0.1453,0.1453,0.1453,0,0.0006,0.0009,0.0078,0.0158,0.0186,0.0265,0.0414,0.0544,0.0671,0.0909,0.0983,0.1187,0.132,0.1362,0.1492,0.1421,0.1438,0.1411,0.1272,0.1234,0.1089,0.1068,0.1214,0.1247,0.132,0.1319,0.1317,0,0.003,0.0058,0.0143,0.0196,0.0235,0.0342,0.0441,0.0566,0.0715,0.0986,0.1127,0.13,0.1444,0.1532,0.1468,0.1414,0.1396,0.1295,0.1247,0.1128,0.109,0.1073,0.1091,0.1227,0.1225,0.1223,0.1222,0,0.0112,0.0132,0.0195,0.0284,0.0372,0.0498,0.0636,0.0751,0.0936,0.1107,0.1345,0.1466,0.1528,0.1511,0.1394,0.1338,0.1288,0.1254,0.1252,0.1154,0.1042,0.1042,0.1052,0.1207,0.1208,0.121,0.121,0.1211,0.0196,0.0249,0.0311,0.04,0.0506,0.0654,0.0762,0.0916,0.1116,0.1373,0.1468,0.1633,0.1548,0.141,0.1326,0.112,0.1172,0.1058,0.1066,0.1075,0.1079,0.0979,0.1036,0.1037,0.1037,0.1037,0.1038,0,0.0298,0.0338,0.0427,0.0539,0.0674,0.0707,0.0905,0.101,0.1213,0.1429,0.1592,0.1607,0.15,0.1354,0.1072,0.0966,0.0971,0.0926,0.095,0.1,0.1025,0.0992,0.09,0.09,0.09,0.09,0.09,0.09,0.0362,0.0435,0.0455,0.0654,0.0753,0.0916,0.1025,0.1158,0.1303,0.1479,0.1554,0.1616,0.1489,0.1126,0.0922,0.0883,0.0915,0.0837,0.0908,0.0932,0.0946,0.096,0.0928,0.0824,0.0824,0.0899,0.0899,0.0899]}],[{"header":{"parameterUnit":"m.s-1","parameterCategory":2,"la1":30.2991,"la2":30.254,"lo1":-89.0895,"lo2":-89.0444,"dy":0.0017,"dx":0.0017,"nx":28,"ny":28,"refTime":"2025-06-10T03:00:00:Z","depth":"2","parameterNumber":2,"parameterNumberName":"U-component_of_CURRENTS"},"data":[0,0,0,0,0,0,0,0,0,0,0,0,0,0,0,0,0,0,0,0,0,0,0,0,0,0,0,0,0,0,0,0,0,0,0,0,0,0,0,0,0,0,0,0,0,0,0,0,0,0,0,0,0,0,0,0,0,0,0.155,0.1551,0,0.1582,0.1582,0.1582,0.157,0.1569,0.1569,0.1569,0.152,0.1519,0.1518,0,0,0,0,0,0,0,0,0,0,0,0,0,0.1513,0.1513,0.155,0.1551,0.1552,0.1582,0.1582,0.1582,0.157,0.1569,0.1569,0.1569,0.1521,0.1519,0.1518,0,0,0,0,0,0,0,0,0,0,0,0,0,0.1529,0.1513,0.1549,0.1554,0.1555,0.1582,0.1582,0.1582,0.157,0.1569,0.1569,0.1569,0.1521,0.152,0.1518,0.1512,0,0,0.1513,0.1512,0,0,0,0,0,0,0,0,0.1528,0.153,0.1552,0.1554,0.1555,0.1577,0.1551,0.1556,0.157,0.1557,0.1569,0.1569,0.1536,0.1533,0.1532,0.151,0.1508,0.1512,0.1511,0.1511,0.151,0,0,0,0,0,0,0,0.1527,0.1528,0.1556,0.1554,0.1555,0.1567,0.1568,0.1552,0.1541,0.1558,0.1559,0.1573,0.1535,0.1534,0.1531,0.1507,0.1513,0.1511,0.151,0.1509,0.1599,0.1602,0,0,0,0,0,0,0.1534,0.1527,0.1555,0.1558,0.1548,0.1568,0.1569,0.1565,0.1543,0.1542,0.1573,0.1573,0.1537,0.1533,0.1529,0.1608,0.1511,0.1509,0.1508,0.1596,0.16,0.1604,0,0,0,0,0,0,0.1533,0.1535,0.1554,0.1549,0.1553,0.1569,0.1565,0.1566,0.1574,0.1557,0.1552,0.1582,0.1536,0.1531,0.1541,0.1603,0.1508,0.1507,0.1592,0.1597,0.1602,0.171,0,0,0,0,0,0,0.1531,0.1534,0.1536,0.1549,0.1554,0.1553,0.1566,0.1567,0.1585,0.1585,0.1563,0.1557,0.1536,0.1545,0.154,0.1599,0.1505,0.1587,0.1594,0.16,0.1702,0.1719,0.1732,0,0,0,0,0,0.1529,0.1543,0.1535,0.1539,0.1554,0.1553,0.1555,0.1563,0.1586,0.1572,0.1592,0.1559,0.1583,0.1545,0.1539,0.1599,0.1584,0.1592,0.16,0.1696,0.1715,0.1732,0,0,0,0,0,0,0.1538,0.1544,0.1535,0.1551,0.1541,0.1553,0.1574,0.1572,0.1579,0.1603,0.1578,0.1574,0.1627,0.1593,0.1551,0.165,0.1588,0.1595,0.1663,0.1681,0.1696,0.171,0.1504,0,0,0,0,0,0.1538,0.154,0.1539,0.1548,0.1559,0.1566,0.1575,0.1577,0.159,0.1593,0.1589,0.1611,0.1653,0.1647,0.1668,0.1687,0.1707,0.1732,0.1747,0.176,0.1772,0.1928,0.1959,0.1629,0.1629,0.1629,0,0,0.1553,0.1551,0.1558,0.1548,0.1562,0.1568,0.1569,0.1595,0.1609,0.1588,0.1625,0.1664,0.1677,0.1731,0.1749,0.1702,0.185,0.177,0.178,0.1785,0.1939,0.1972,0.2,0.1634,0.1633,0.1632,0,0,0.156,0.1578,0.157,0.1564,0.1575,0.1592,0.16,0.1619,0.1639,0.1672,0.1704,0.178,0.1786,0.1834,0.1856,0.1961,0.1944,0.1968,0.2027,0.2179,0.2208,0.2233,0.2235,0.226,0.1953,0.1953,0.1953,0,0.1582,0.1567,0.1568,0.1552,0.1582,0.1604,0.1619,0.1636,0.1654,0.1699,0.1697,0.1848,0.1852,0.1965,0.2009,0.1997,0.2031,0.1951,0.22,0.2226,0.2251,0.2247,0.2273,0.1959,0.1959,0.1958,0.1957,0,0.1561,0.1563,0.1577,0.1569,0.1582,0.1618,0.1645,0.168,0.174,0.1772,0.191,0.1963,0.205,0.2083,0.207,0.2249,0.2196,0.222,0.2152,0.2291,0.2276,0.2302,0.1968,0.1966,0.1964,0.1963,0,0,0.1601,0.1573,0.1582,0.1581,0.1616,0.1629,0.1689,0.1759,0.1824,0.1898,0.2016,0.2133,0.2193,0.2226,0.2257,0.2376,0.2553,0.2365,0.237,0.2358,0.28,0.2468,0.2462,0.2641,0.2648,0.2653,0.2694,0,0.1605,0.1593,0.1585,0.1611,0.163,0.168,0.1729,0.179,0.1875,0.1982,0.2117,0.2237,0.2234,0.2314,0.244,0.2579,0.2638,0.2533,0.2673,0.2674,0.2362,0.2489,0.2331,0.2332,0.2719,0.2723,0.2726,0,0.1597,0.1592,0.1623,0.165,0.167,0.1693,0.1824,0.1861,0.2005,0.2081,0.2238,0.2327,0.2536,0.2513,0.2788,0.2731,0.2752,0.282,0.2825,0.2501,0.2393,0.2272,0.2363,0.2768,0.2765,0.2762,0.2759,0,0.1635,0.1631,0.1675,0.1683,0.1713,0.176,0.1803,0.1912,0.1987,0.2165,0.2277,0.2491,0.2643,0.2802,0.2866,0.289,0.3101,0.3156,0.2839,0.2811,0.269,0.2638,0.3291,0.3291,0.3291,0.3291,0.3291,0,0.1667,0.1696,0.1692,0.171,0.1767,0.1782,0.1879,0.1944,0.2087,0.2206,0.234,0.2481,0.2744,0.2857,0.2917,0.291,0.3134,0.2858,0.2834,0.2706,0.2657,0.3058,0.3031,0.3292,0.3292,0.3292,0.3292,0,0.1708,0.1719,0.1739,0.1765,0.1781,0.1821,0.1904,0.1978,0.2106,0.2281,0.2362,0.2563,0.2721,0.2807,0.3021,0.2934,0.298,0.286,0.2583,0.2522,0.258,0.2559,0.2654,0.2644,0.2635,0.2627,0.2621,0,0.1727,0.174,0.1765,0.18,0.1821,0.1872,0.1922,0.1998,0.2076,0.231,0.2404,0.2572,0.2633,0.2701,0.2639,0.2596,0.2713,0.2307,0.2327,0.2565,0.2534,0.2525,0.2516,0.2209,0.22,0.2193,0.2187,0,0.1753,0.1775,0.1805,0.1857,0.1903,0.1939,0.2005,0.206,0.2181,0.2269,0.2381,0.2444,0.2461,0.2341,0.217,0.2138,0.233,0.214,0.2593,0.2323,0.2131,0.2102,0.2113,0.212,0.2127,0.2132,0.2135,0.2138,0.1793,0.1817,0.1871,0.1917,0.1974,0.2033,0.2012,0.2072,0.2125,0.2182,0.2253,0.2193,0.2164,0.1859,0.1741,0.1636,0.1837,0.1772,0.1806,0.1845,0.1715,0.1511,0.1353,0.1355,0.1357,0.1359,0.136,0,0.1839,0.1891,0.193,0.1963,0.1983,0.2043,0.2081,0.2006,0.1978,0.1979,0.1927,0.1657,0.1522,0.1505,0.1253,0.114,0.126,0.1078,0.129,0.1353,0.1411,0.127,0.0785,0.0783,0.0781,0.078,0,0,0.1883,0.1935,0.1929,0.1953,0.1991,0.197,0.1969,0.1851,0.1775,0.159,0.145,0.1444,0.146,0.1119,0.1032,0.0889,0.1133,0.0834,0.1301,0.162,0.1676,0.1806,0.1654,0,0,0,0,0]},{"header":{"parameterUnit":"m.s-1","parameterCategory":2,"la1":30.2991,"la2":30.254,"lo1":-89.0895,"lo2":-89.0444,"dy":0.0017,"dx":0.0017,"nx":28,"ny":28,"refTime":"2025-06-10T03:00:00:Z","depth":"2","parameterNumber":3,"parameterNumberName":"V-component_of_CURRENTS"},"data":[0,0,0,0,0,0,0,0,0,0,0,0,0,0,0,0,0,0,0,0,0,0,0,0,0,0,0,0,0,0,0,0,0,0,0,0,0,0,0,0,0,0,0,0,0,0,0,0,0,0,0,0,0,0,0,0,0,0,-0.0044,-0.0044,0,-0.0049,-0.005,-0.005,-0.0047,-0.0047,-0.0047,-0.0046,0.0004,0.0005,0.0006,0,0,0,0,0,0,0,0,0,0,0,0,0,-0.0053,-0.0053,-0.0044,-0.0044,-0.0044,-0.0049,-0.005,-0.005,-0.0047,-0.0047,-0.0047,-0.0046,0.0003,0.0005,0.0006,0,0,0,0,0,0,0,0,0,0,0,0,0,-0.0054,-0.0053,-0.0044,-0.0043,-0.0042,-0.0049,-0.005,-0.005,-0.0047,-0.0047,-0.0047,-0.0046,0.0003,0.0005,0.0006,0.0009,0,0,0.0011,0.0012,0,0,0,0,0,0,0,0,-0.0054,-0.0053,-0.0043,-0.0043,-0.0043,-0.0046,-0.0034,-0.0027,-0.0047,-0.0047,-0.0046,-0.0046,-0.0007,-0.0005,-0.0009,0.0012,0.0014,0.0011,0.0013,0.0013,0.0014,0,0,0,0,0,0,0,-0.0053,-0.0053,-0.0047,-0.0043,-0.0043,-0.0049,-0.0048,-0.0033,-0.0029,-0.0047,-0.0046,-0.0045,-0.0007,-0.0011,-0.0008,0.0015,0.0011,0.0013,0.0014,0.0015,0.0074,0.0074,0,0,0,0,0,0,-0.005,-0.0053,-0.0047,-0.0047,-0.0046,-0.0049,-0.0048,-0.0046,-0.003,-0.0027,-0.0045,-0.0045,-0.0014,-0.001,-0.0006,0.0004,0.0013,0.0015,0.0016,0.0073,0.0074,0.0074,0,0,0,0,0,0,-0.005,-0.0049,-0.0047,-0.005,-0.005,-0.0049,-0.0047,-0.0047,-0.0048,-0.003,-0.0026,-0.0047,-0.0013,-0.0008,-0.0001,0.0006,0.0016,0.0017,0.0072,0.0073,0.0074,0.0021,0,0,0,0,0,0,-0.005,-0.0049,-0.0049,-0.0049,-0.0049,-0.0047,-0.0047,-0.0047,-0.0048,-0.0047,-0.0029,-0.0025,-0.0013,-0.0003,0.0001,0.0008,0.0018,0.0072,0.0073,0.0074,0.0022,0.002,0.0018,0,0,0,0,0,-0.0051,-0.0053,-0.0049,-0.0048,-0.0048,-0.0047,-0.0047,-0.0047,-0.0048,-0.0048,-0.0045,-0.0025,0.0008,-0.0003,0.0003,0.0011,0.0071,0.0072,0.0074,0.0023,0.002,0.0018,0,0,0,0,0,0,-0.0062,-0.0053,-0.0048,-0.0049,-0.0045,-0.0046,-0.005,-0.0048,-0.0047,-0.0047,-0.0032,-0.0027,-0.0016,0.0008,-0.0004,0.0035,0.0049,0.0051,0.0008,0.0006,0.0004,0.0054,0.002,0,0,0,0,0,-0.0063,-0.0059,-0.0052,-0.0053,-0.0052,-0.0051,-0.0052,-0.0049,-0.0047,-0.0047,-0.0038,-0.0021,-0.0006,0.0006,0.0021,0.0036,0.0101,0.0052,0.005,0.0048,0.0094,0.0234,0.025,0.0078,0.0078,0.0078,0,0,-0.0069,-0.0063,-0.0062,-0.0055,-0.0055,-0.0046,-0.0051,-0.0052,-0.0039,-0.004,-0.0031,-0.0033,-0.0005,0.0006,0.0016,0.0026,0.0108,0.005,0.0047,0.0096,0.0237,0.0254,0.027,0.0079,0.0079,0.0079,0,0,-0.0077,-0.0073,-0.0071,-0.0063,-0.0057,-0.005,-0.0049,-0.0049,-0.0044,-0.0045,-0.0036,-0.0024,-0.0019,0.0016,0.0031,0.0037,0.0089,0.0028,0.0062,0.0195,0.0211,0.0227,0.0232,0.0249,0.0033,0.0033,0.0033,0,-0.0084,-0.007,-0.0071,-0.0063,-0.0045,-0.0049,-0.003,-0.0031,-0.0028,-0.0002,-0.0043,0.0002,-0.0,0.0063,0.0045,0.0037,0.0082,0.0058,0.0195,0.0212,0.0229,0.0232,0.0251,0.003,0.0031,0.0031,0.0031,0,-0.0084,-0.0068,-0.0068,-0.0047,-0.0032,-0.002,-0.0007,0.0004,-0.0002,0.0011,0.0048,0.0035,0.0082,0.006,0.004,0.0152,0.0127,0.0169,0.0202,0.0244,0.0241,0.0262,0.0027,0.0028,0.0028,0.0029,0,0,-0.0101,-0.007,-0.0068,-0.0031,-0.0014,0.001,0.0031,0.0079,0.013,0.01,0.0178,0.0149,0.0153,0.0174,0.016,0.0245,0.0328,0.0246,0.0254,0.0249,0.0541,0.0419,0.043,0.0404,0.041,0.0414,0.0455,0,-0.0091,-0.0057,-0.0044,0.0012,0.0044,0.0068,0.0105,0.0147,0.0167,0.0232,0.0237,0.028,0.0195,0.021,0.028,0.0367,0.0399,0.0308,0.0505,0.0509,0.04,0.0458,0.0438,0.0468,0.0476,0.0479,0.0482,0,-0.0086,-0.0051,-0.0007,0.0089,0.0106,0.0129,0.0233,0.0264,0.0344,0.0362,0.0405,0.0416,0.0503,0.0428,0.0581,0.0532,0.0522,0.0552,0.0557,0.0501,0.0433,0.045,0.0507,0.0518,0.0515,0.0512,0.051,0,-0.0071,-0.0009,0.0037,0.0059,0.014,0.0178,0.0223,0.03,0.0374,0.0453,0.0527,0.0603,0.0677,0.0734,0.072,0.0692,0.0881,0.0866,0.0718,0.0703,0.076,0.0742,0.096,0.096,0.096,0.096,0.096,0,-0.005,-0.0006,0.0045,0.0074,0.0163,0.0205,0.0312,0.0355,0.0471,0.0608,0.0595,0.0718,0.0777,0.0857,0.0814,0.0825,0.0956,0.0748,0.0747,0.0721,0.0701,0.0829,0.0813,0.0961,0.0961,0.0961,0.0961,0,-0.004,-0.0024,0.0052,0.0138,0.0163,0.0225,0.0361,0.0476,0.0538,0.0725,0.0762,0.088,0.098,0.0954,0.1058,0.0958,0.0967,0.09,0.0781,0.0765,0.0658,0.0639,0.0803,0.08,0.0798,0.0795,0.0794,0,-0.0032,0.0003,0.0095,0.0143,0.0175,0.0272,0.0377,0.0482,0.0636,0.0833,0.0971,0.1064,0.1144,0.1163,0.1042,0.0929,0.0919,0.0784,0.0733,0.0681,0.0663,0.0648,0.0633,0.0742,0.074,0.0738,0.0737,0,0.0019,0.0038,0.0101,0.0194,0.0289,0.0438,0.0596,0.0714,0.0894,0.1034,0.1231,0.1279,0.1254,0.1159,0.0943,0.0859,0.0811,0.0739,0.0846,0.0755,0.062,0.0602,0.0591,0.0722,0.0723,0.0724,0.0725,0.0726,0.0063,0.0112,0.0186,0.028,0.0414,0.0609,0.072,0.0913,0.1115,0.1308,0.137,0.1392,0.1273,0.0981,0.0838,0.0659,0.0689,0.0609,0.0618,0.0628,0.0585,0.0451,0.0505,0.0505,0.0506,0.0506,0.0506,0,0.0148,0.0195,0.0283,0.043,0.062,0.0658,0.0902,0.1011,0.1223,0.1339,0.1423,0.1238,0.1105,0.0947,0.0662,0.05,0.0521,0.0447,0.0521,0.0536,0.0549,0.0505,0.0403,0.0402,0.0402,0.0401,0,0,0.0204,0.0288,0.0328,0.0598,0.0719,0.0932,0.1053,0.116,0.1243,0.1302,0.1283,0.127,0.1104,0.0869,0.0689,0.0542,0.0568,0.0504,0.0599,0.0721,0.0735,0.065,0.0598,0,0,0,0,0]}],[{"header":{"parameterUnit":"m.s-1","parameterCategory":2,"la1":30.2991,"la2":30.254,"lo1":-89.0895,"lo2":-89.0444,"dy":0.0017,"dx":0.0017,"nx":28,"ny":28,"refTime":"2025-06-10T03:00:00:Z","depth":"4","parameterNumber":2,"parameterNumberName":"U-component_of_CURRENTS"},"data":[0,0,0,0,0,0,0,0,0,0,0,0,0,0,0,0,0,0,0,0,0,0,0,0,0,0,0,0,0,0,0,0,0,0,0,0,0,0,0,0,0,0,0,0,0,0,0,0,0,0,0,0,0,0,0,0,0,0,0.048,0.048,0,0.0478,0.0477,0.0477,0.0504,0.0505,0.0506,0.0507,0.0537,0.0537,0.0537,0,0,0,0,0,0,0,0,0,0,0,0,0,0.0541,0.0539,0.048,0.048,0.0481,0.0478,0.0477,0.0477,0.0503,0.0505,0.0506,0.0507,0.0537,0.0537,0.0537,0,0,0,0,0,0,0,0,0,0,0,0,0,0.0521,0.0539,0.048,0.0496,0.0498,0.0478,0.0477,0.0477,0.0503,0.0505,0.0506,0.0508,0.0537,0.0537,0.0537,0.0504,0,0,0.0536,0.0536,0,0,0,0,0,0,0,0,0.0522,0.0518,0.0493,0.0495,0.0497,0.0496,0.051,0.0489,0.0503,0.0497,0.0507,0.0508,0.0527,0.0528,0.0519,0.0505,0.0507,0.0536,0.0536,0.0536,0.0536,0,0,0,0,0,0,0,0.0523,0.0519,0.0476,0.0494,0.0496,0.0515,0.0513,0.0506,0.0501,0.0498,0.0501,0.0505,0.0528,0.0519,0.052,0.0507,0.0536,0.0536,0.0536,0.0536,0.0595,0.0597,0,0,0,0,0,0,0.0526,0.0519,0.0476,0.0476,0.0517,0.0513,0.0511,0.0491,0.0501,0.0505,0.0504,0.0507,0.0518,0.052,0.0521,0.0513,0.0536,0.0536,0.0536,0.0593,0.0596,0.0597,0,0,0,0,0,0,0.0527,0.0521,0.0476,0.0502,0.0498,0.051,0.0489,0.0491,0.0499,0.0506,0.051,0.0513,0.052,0.0521,0.0528,0.0513,0.0536,0.0535,0.0591,0.0594,0.0596,0.0477,0,0,0,0,0,0,0.0528,0.0521,0.0514,0.0501,0.0497,0.0455,0.0488,0.049,0.05,0.0504,0.0514,0.0518,0.0521,0.0528,0.0527,0.0514,0.0535,0.0589,0.0593,0.0596,0.0479,0.0476,0.0472,0,0,0,0,0,0.053,0.0499,0.0513,0.0509,0.0484,0.0454,0.0452,0.0466,0.0499,0.0483,0.0509,0.0518,0.055,0.0527,0.0527,0.0512,0.0588,0.0592,0.0595,0.0481,0.0476,0.0473,0,0,0,0,0,0,0.0509,0.0499,0.0514,0.0479,0.047,0.046,0.045,0.047,0.0476,0.0493,0.0511,0.0514,0.0537,0.0549,0.0524,0.0553,0.0582,0.0586,0.0496,0.0492,0.0488,0.0577,0.0535,0,0,0,0,0,0.0505,0.0486,0.0479,0.0452,0.0447,0.0456,0.0453,0.0464,0.0468,0.0473,0.0482,0.0515,0.0548,0.0537,0.0572,0.0547,0.0618,0.0556,0.0553,0.0549,0.0629,0.0736,0.0749,0.061,0.061,0.061,0,0,0.0491,0.0484,0.0473,0.0449,0.0446,0.0413,0.0456,0.0445,0.0434,0.0474,0.0463,0.0509,0.0553,0.0549,0.0558,0.0547,0.0603,0.0554,0.0549,0.0635,0.0742,0.0755,0.0767,0.0613,0.0612,0.0612,0,0,0.0424,0.0444,0.0395,0.0391,0.0388,0.0393,0.0394,0.039,0.0406,0.0403,0.0456,0.0516,0.0505,0.0552,0.0573,0.0582,0.0608,0.0568,0.0577,0.0675,0.0687,0.07,0.0694,0.0708,0.0532,0.0532,0.0532,0,0.0414,0.0359,0.0376,0.0331,0.0346,0.0382,0.0351,0.035,0.0353,0.0398,0.0396,0.0514,0.0532,0.0589,0.0593,0.0576,0.0602,0.0561,0.0668,0.0683,0.0697,0.0691,0.0707,0.0527,0.0527,0.0528,0.0528,0,0.0292,0.0282,0.0257,0.0224,0.023,0.0218,0.0236,0.0255,0.0302,0.0334,0.043,0.0477,0.0571,0.0555,0.0568,0.0671,0.0639,0.0665,0.0665,0.0704,0.0693,0.0711,0.0519,0.0521,0.0522,0.0524,0,0,0.0208,0.0181,0.0179,0.0198,0.0199,0.0202,0.0201,0.0246,0.0309,0.0332,0.0428,0.0493,0.0581,0.0623,0.0647,0.0715,0.0781,0.072,0.0727,0.0692,0.092,0.0758,0.0762,0.0803,0.0808,0.0813,0.0827,0,0.0127,0.0052,0.0066,0.0056,0.0046,0.0126,0.0143,0.0203,0.0273,0.0362,0.0469,0.0567,0.0574,0.0639,0.071,0.0798,0.0846,0.0772,0.0916,0.092,0.0755,0.0788,0.083,0.0841,0.0846,0.0849,0.0851,0,0.0011,-0.0,-0.0044,0.0052,0.0061,0.007,0.0205,0.023,0.0359,0.043,0.0553,0.0634,0.0754,0.0773,0.0931,0.087,0.0923,0.0967,0.0968,0.0909,0.08,0.0831,0.0887,0.0884,0.0881,0.0879,0.0877,0,-0.0039,-0.0042,-0.0052,-0.0039,0.0023,0.0082,0.0152,0.027,0.0347,0.0504,0.0582,0.0724,0.0818,0.0931,0.0997,0.0983,0.1154,0.1136,0.1032,0.1015,0.1205,0.1194,0.1305,0.1305,0.1305,0.1305,0.1305,0,-0.0102,-0.0097,-0.0058,-0.0061,0.002,0.0085,0.0211,0.0295,0.0438,0.0545,0.064,0.073,0.0882,0.0964,0.1026,0.1056,0.1171,0.1078,0.1046,0.1135,0.1117,0.1209,0.1198,0.1305,0.1305,0.1305,0.1305,0,-0.0152,-0.0157,-0.0137,-0.0057,-0.0012,0.0063,0.0245,0.0336,0.0457,0.0597,0.0652,0.0767,0.0862,0.0942,0.1106,0.1068,0.1134,0.1123,0.115,0.1112,0.0911,0.0894,0.1014,0.101,0.1006,0.1002,0.1,0,-0.019,-0.0204,-0.0132,-0.0088,-0.0039,0.009,0.0183,0.0338,0.0429,0.0604,0.0655,0.0774,0.0844,0.0919,0.0994,0.1049,0.106,0.1036,0.106,0.0944,0.0901,0.0889,0.0878,0.0993,0.0992,0.0991,0.099,0,-0.0229,-0.0213,-0.0188,-0.0111,-0.0018,0.011,0.0251,0.0315,0.049,0.057,0.0688,0.0743,0.0817,0.088,0.0907,0.0957,0.1022,0.0995,0.1005,0.1027,0.0919,0.0877,0.0871,0.0976,0.0978,0.0979,0.098,0,-0.0236,-0.0212,-0.0186,-0.0094,0.0013,0.0137,0.021,0.034,0.0452,0.0624,0.0647,0.0759,0.084,0.0829,0.0861,0.0873,0.0879,0.0854,0.0872,0.0887,0.0833,0.0676,0.0667,0,0,0,0,0,-0.0225,-0.0197,-0.0152,-0.0038,0.0063,0.0144,0.0263,0.0326,0.046,0.0538,0.0611,0.0687,0.0735,0.0756,0.0749,0.0759,0.0853,0.0737,0.0827,0.0899,0.0915,0.0859,0,0,0,0,0,0,-0.0211,-0.0186,-0.0162,-0.0007,0.0093,0.0228,0.0312,0.0381,0.0433,0.0542,0.0582,0.0628,0.0687,0.0773,0.0746,0.0746,0.0778,0.0781,0.0778,0.089,0.0905,0.0917,0.0865,0,0,0,0,0]},{"header":{"parameterUnit":"m.s-1","parameterCategory":2,"la1":30.2991,"la2":30.254,"lo1":-89.0895,"lo2":-89.0444,"dy":0.0017,"dx":0.0017,"nx":28,"ny":28,"refTime":"2025-06-10T03:00:00:Z","depth":"4","parameterNumber":3,"parameterNumberName":"V-component_of_CURRENTS"},"data":[0,0,0,0,0,0,0,0,0,0,0,0,0,0,0,0,0,0,0,0,0,0,0,0,0,0,0,0,0,0,0,0,0,0,0,0,0,0,0,0,0,0,0,0,0,0,0,0,0,0,0,0,0,0,0,0,0,0,0.0079,0.008,0,0.0102,0.0102,0.0103,0.0076,0.0075,0.0074,0.0074,0.0081,0.0082,0.0083,0,0,0,0,0,0,0,0,0,0,0,0,0,0.0004,0.0005,0.0079,0.008,0.008,0.0102,0.0102,0.0103,0.0076,0.0075,0.0074,0.0073,0.008,0.0081,0.0083,0,0,0,0,0,0,0,0,0,0,0,0,0,0.0031,0.0006,0.0079,0.007,0.007,0.0102,0.0102,0.0103,0.0077,0.0075,0.0074,0.0073,0.008,0.0081,0.0083,0.0119,0,0,0.0087,0.0088,0,0,0,0,0,0,0,0,0.003,0.0034,0.0071,0.0071,0.0071,0.0086,0.0078,0.0108,0.0077,0.0073,0.0074,0.0072,0.0083,0.0084,0.009,0.0119,0.012,0.0088,0.0089,0.0089,0.009,0,0,0,0,0,0,0,0.0028,0.0033,0.0087,0.0072,0.0071,0.0062,0.0065,0.0084,0.0084,0.0073,0.0072,0.0076,0.0082,0.0088,0.009,0.012,0.0088,0.0089,0.009,0.009,0.0136,0.0136,0,0,0,0,0,0,0.003,0.0032,0.0086,0.0088,0.0048,0.0065,0.0068,0.0081,0.0084,0.0083,0.0077,0.0075,0.0086,0.0088,0.009,0.0127,0.0089,0.0091,0.0091,0.0135,0.0136,0.0136,0,0,0,0,0,0,0.0028,0.0035,0.0085,0.006,0.0066,0.0068,0.0083,0.0083,0.0086,0.0088,0.0086,0.0081,0.0085,0.0088,0.0103,0.0127,0.0091,0.0093,0.0135,0.0136,0.0136,0.0204,0,0,0,0,0,0,0.0026,0.0034,0.0046,0.0061,0.0068,0.0118,0.0085,0.0084,0.0092,0.0089,0.0091,0.009,0.0085,0.0101,0.0104,0.0128,0.0094,0.0135,0.0135,0.0136,0.0201,0.0207,0.0211,0,0,0,0,0,0.0024,0.006,0.0047,0.0053,0.0084,0.012,0.0123,0.0118,0.0093,0.0112,0.0098,0.009,0.0106,0.0103,0.0107,0.0132,0.0134,0.0135,0.0136,0.0199,0.0206,0.0211,0,0,0,0,0,0,0.0036,0.0061,0.0047,0.0088,0.0103,0.0116,0.0137,0.0123,0.0128,0.012,0.0104,0.0104,0.0117,0.0115,0.0112,0.0141,0.0115,0.0117,0.0162,0.0168,0.0173,0.0169,0.0095,0,0,0,0,0,0.0043,0.0074,0.0088,0.0119,0.0131,0.0129,0.014,0.0137,0.0142,0.0142,0.0143,0.0135,0.0126,0.0139,0.0135,0.0171,0.014,0.0183,0.0188,0.0192,0.0189,0.0148,0.0149,0.0138,0.0138,0.0138,0,0,0.0055,0.0073,0.0089,0.0123,0.0133,0.0166,0.0133,0.0163,0.0182,0.0145,0.0176,0.0152,0.0133,0.0157,0.0165,0.0162,0.0183,0.0193,0.0197,0.0192,0.0149,0.015,0.0151,0.0139,0.0139,0.0139,0,0,0.0106,0.0112,0.0156,0.0173,0.0197,0.02,0.0208,0.0227,0.0227,0.0258,0.0212,0.0194,0.0226,0.0197,0.0188,0.0219,0.0198,0.0229,0.0273,0.0234,0.0234,0.0234,0.0216,0.0214,0.0247,0.0248,0.0248,0,0.0118,0.0168,0.0174,0.0217,0.023,0.0217,0.0255,0.0267,0.0284,0.0269,0.028,0.0248,0.0238,0.0217,0.0233,0.023,0.0216,0.0257,0.024,0.024,0.0238,0.0219,0.0216,0.0251,0.025,0.025,0.025,0,0.0199,0.0231,0.0262,0.0304,0.032,0.0357,0.0363,0.0373,0.0369,0.0357,0.0342,0.0325,0.0296,0.0298,0.0288,0.027,0.0266,0.024,0.0228,0.0244,0.0223,0.0218,0.0256,0.0254,0.0253,0.0253,0,0,0.0249,0.0306,0.0318,0.0328,0.0364,0.0382,0.0411,0.0413,0.0396,0.0419,0.04,0.0391,0.0355,0.034,0.0313,0.0299,0.029,0.0289,0.0285,0.0277,0.0229,0.0218,0.0212,0.0272,0.0271,0.027,0.0225,0,0.0307,0.0378,0.0402,0.0455,0.0475,0.0467,0.0484,0.0473,0.046,0.0444,0.0407,0.0392,0.0382,0.0373,0.0352,0.029,0.0278,0.0306,0.0209,0.0206,0.0199,0.0205,0.0267,0.0221,0.022,0.0219,0.0219,0,0.0378,0.0405,0.0465,0.048,0.0491,0.0535,0.0511,0.053,0.0489,0.0475,0.0443,0.0409,0.0381,0.0378,0.03,0.0325,0.0289,0.0253,0.0249,0.0208,0.0186,0.0195,0.0209,0.021,0.0211,0.0211,0.0212,0,0.0371,0.0447,0.0483,0.0497,0.0523,0.0549,0.0571,0.0537,0.0537,0.0503,0.0485,0.0429,0.0413,0.0358,0.0302,0.0303,0.022,0.0196,0.015,0.015,0.0143,0.0143,0.0141,0.0141,0.0142,0.0142,0.0142,0,0.0399,0.0429,0.0494,0.0509,0.0553,0.0566,0.0607,0.0589,0.0577,0.0561,0.0514,0.0484,0.0412,0.0355,0.0303,0.0221,0.0216,0.0155,0.0132,0.0176,0.018,0.0141,0.0141,0.014,0.014,0.0141,0.0141,0,0.0374,0.0418,0.0463,0.0521,0.0554,0.0586,0.0675,0.068,0.0657,0.0638,0.0637,0.0537,0.0458,0.0383,0.0281,0.0219,0.0142,0.0117,0.0192,0.0174,0.0098,0.0103,0.0043,0.0042,0.0041,0.004,0.004,0,0.0364,0.0386,0.0477,0.053,0.058,0.0659,0.0705,0.0727,0.072,0.0661,0.0628,0.0557,0.049,0.0349,0.0257,0.0151,0.0134,0.009,0.0074,0.0101,0.0085,0.0091,0.0096,0.0039,0.0039,0.0038,0.0038,0,0.0334,0.038,0.041,0.0527,0.0614,0.0699,0.0763,0.0761,0.0749,0.0733,0.0639,0.0555,0.0452,0.0339,0.0269,0.0185,0.0111,0.0082,0.0082,0.0067,0.0096,0.0082,0.0088,0.0036,0.0036,0.0036,0.0036,0,0.0314,0.034,0.0413,0.052,0.0627,0.0707,0.0749,0.0761,0.0764,0.068,0.0654,0.0551,0.0494,0.0355,0.0281,0.0208,0.0169,0.0128,0.0125,0.0127,0.016,0.021,0.0164,0,0,0,0,0,0.0304,0.0347,0.0418,0.0532,0.0641,0.0718,0.0761,0.078,0.0761,0.0704,0.0684,0.0596,0.0455,0.0378,0.0305,0.0245,0.0146,0.015,0.0097,0.0022,0.0025,0.0047,0,0,0,0,0,0,0.0293,0.0351,0.0395,0.0533,0.0627,0.0739,0.0776,0.076,0.072,0.0688,0.0623,0.0577,0.0451,0.0529,0.0313,0.0282,0.0231,0.0088,0.0085,0.002,0.0023,0.0025,0.005,0,0,0,0,0]}]]